Погода в Фошане

Китай     23°05′59″N   113°07′09″E
темп.,
°C
ветер,
м/с
пор.,
м/с
влажн.,
%
обл.,
%
осадки,
мм/ч
давл.,
гПа
погр.,
м
2 июля, сб
сб223:00+26всв61384100 1.3 1000919
02:00+25всв61295100 22.6 998858
05:00+26всв81589100 2.1 9961120
08:00+26всв81493100 12.9 9961096
11:00+26всв91789100 22.3 9951193
14:00+26вюв91590100 44.7 9941016
17:00+27вюв91688100 7.0 9931171
20:00+26юв101691100 11.5 9941129
3 июля, вс
вс323:00+26юв112191100 15.6 9961440
02:00+26юв101791100 22.6 9951157
05:00+26ююв91688100 10.1 9951058
08:00+26ююв81590100 12.2 9971229
11:00+27ююв81583100 2.9 9981174
14:00+28ю81481100 4.4 9971308
17:00+27ю71578100 1.0 9971238
20:00+27ююв61279100 1.0 998858
4 июля, пн
пн423:00+27ю51180100 0.0 999804
02:00+27ююв51179100 0.0 998933
05:00+26ю41088100 0.9 998698
08:00+27ю41085100 0.9 999697
11:00+27ю4984100 0.6 1000673
14:00+29ююз5974100 0.8 9991065
17:00+27ю4781100 0.3 998600
20:00+27ю2582100 0.3 1000324
5 июля, вт
вт523:00+26юв1186100 0.1 100166
02:00+26ююз009399 2.3 100045
05:00+25зюз119587 3.2 100070
08:00+26вюв019188 7.8 1002272
11:00+31ююз136967 0.1 10011041
14:00+31ю347196 8.8 999894
17:00+30ююз3477100 7.2 999421
20:00+28ююв2485100 13.0 1001123
6 июля, ср
ср623:00+28ююв3586100 3.2 1002136
02:00+27ююв2287100 4.7 100165
05:00+27ююв129024 0.6 100139
08:00+28юв2383100 2.6 1002223
11:00+31юв2370100 6.2 1002669
14:00+33ю3359100 7.4 9991427
17:00+31ю3570100 4.3 999895
20:00+29ю2583100 7.7 1000232